Regional Weather Roundup
Issued by NWS

Home | Current Version | Previous Version | Graphics & Text | Print | Product List | Glossary On
Versions: 1 2 3 4 5 6 7 8 9 10 11 12 13 14 15 16 17 18 19 20 21 22 23 24 25 26 27 28 29 30 31 32 33 34 35 36 37 38 39 40 41 42 43 44 45 46 47 48 49 50
000
ASUS43 KMKX 260221
RWRWI

WISCONSIN REGIONAL WEATHER ROUNDUP
NATIONAL WEATHER SERVICE MILWAUKEE/SULLIVAN WI
900 PM CDT SAT APR 25 2015

NOTE: "FAIR" INDICATES FEW OR NO CLOUDS BELOW 12,000 FEET WITH NO
SIGNIFICANT WEATHER AND/OR OBSTRUCTIONS TO VISIBILITY.

WIZ001-002-006>008-014>016-023>028-260300-
NORTHWEST WISCONSIN

CITY           SKY/WX    TMP DP  RH WIND       PRES   REMARKS
SUPERIOR ARPT  CLEAR     36  25  64 NE9       30.05R WCI  29
ASHLAND        CLEAR     31  23  72 N5        30.04R WCI  26
HAYWARD        CLEAR     39  20  46 NE10      29.98R WCI  32
SIREN          CLEAR     45  25  45 NE7       29.97R
CUMBERLAND     CLEAR     45  23  42 NE10G16   29.94R
RICE LAKE      CLEAR     46  26  44 N12       29.94R
CHETEK         CLEAR     50  28  42 N6        29.93R
LADYSMITH      CLEAR     45  24  45 N12G20    29.96R
EAU CLAIRE     CLEAR     52  26  36 NE9       29.90R
MENOMONIE      CLEAR     53  26  35 N9        29.91R
NEW RICHMOND   CLEAR     50  29  43 NE7       29.92R
OSCEOLA        CLEAR     51  24  35 N10       29.96R
$$

WIZ003>005-009-010-017-018-260300-
NORTH CENTRAL WISCONSIN

CITY           SKY/WX    TMP DP  RH WIND       PRES   REMARKS
MANITOWISH WTR CLEAR     40  23  50 N6        29.97R
ARBOR VITAE    CLEAR     44  19  36 N8        29.95R
WOODRUFF       CLEAR     44  19  36 N8        29.95R
RHINELANDER    CLEAR     45  16  31 NE5       29.94R
EAGLE RIVER    CLEAR     41  19  40 N6        29.95R
LAND O LAKES   CLEAR     39  19  45 N6        29.97R WCI  34
PHILLIPS       CLEAR     44  22  42 N9        29.94R
TOMAHAWK       CLEAR     45  13  28 CALM      29.92R
MEDFORD        CLEAR     44  23  43 CALM      29.90R
MERRILL        CLEAR     45  16  31 SE9       29.92R
$$

WIZ029-030-035-036-043>047-260300-
CENTRAL WISCONSIN

CITY           SKY/WX    TMP DP  RH WIND       PRES   REMARKS
WAUSAU         CLEAR     45  19  35 E6        29.91R
MOSINEE        CLEAR     43  18  36 E8        29.93R
MARSHFIELD     CLEAR     45  21  38 S7        29.91R
STEVENS POINT  CLEAR     40  17  40 E5        29.93R
WAUPACA        CLEAR     41  13  31 CALM      29.93R
WAUTOMA        CLEAR     42   8  24 NE5       29.93R
WISC RAPIDS    CLEAR     44  15  31 SE3       29.93R
CAMP DOUGLAS   CLEAR     38  16  40 E6        29.90R WCI  34
$$

WIZ011>013-019>022-031-037>040-048>050-260300-
NORTHEAST WISCONSIN

CITY           SKY/WX    TMP DP  RH WIND       PRES   REMARKS
ANTIGO         CLEAR     38  25  57 E6        29.93R WCI  34
SHAWANO        CLEAR     45  20  36 NE5       29.94R
OCONTO         CLEAR     40  23  50 CALM      29.94R
STURGEON BAY   CLEAR     39  19  45 N8        29.95R WCI  34
GREEN BAY      CLEAR     43  24  47 NE10      29.93R
MANITOWOC      PTCLDY    41  23  48 N7        29.92R
APPLETON       PTCLDY    41   9  26 NE6       29.92R
CLINTONVILLE   CLEAR     41  16  36 NE3       29.94R
OSHKOSH        PTCLDY    43  20  39 NE9       29.91R
$$

WIZ032>034-041-042-053>061-260300-
SOUTHWEST WISCONSIN

CITY           SKY/WX    TMP DP  RH WIND       PRES   REMARKS
LA CROSSE      CLEAR     51  17  26 E3        29.89R
SPARTA         CLEAR     41  16  36 E3        29.91R
VIROQUA        MOCLDY    43  20  40 NE6       29.89R
BOSCOBEL       PTCLDY    48  26  42 NE3       29.89R
PRAIRIE DU CHI CLEAR     44  33  64 CALM      29.88R
PLATTEVILLE    CLOUDY    46  36  68 NE5       29.87R
$$

WIZ056-057-062-063-064-067-068-260300-
SOUTH CENTRAL WISCONSIN

CITY           SKY/WX    TMP DP  RH WIND       PRES   REMARKS
REEDSBURG      MOCLDY    46  15  29 NE7       29.90R
BARABOO/DELLS  PTCLDY    44  13  28 NE8       29.90R
LONE ROCK      CLEAR     46  24  42 NE7       29.89R
MINERAL POINT  CLEAR     45  30  57 CALM      29.88R
MADISON        MOCLDY    45  24  43 NE12      29.88R
MIDDLETON      MOCLDY    44  27  51 NE8       29.89R
WATERTOWN      MOCLDY    44  19  36 N3        29.88R
MONROE         CLOUDY    43  34  70 NE6       29.86R
JANESVILLE     CLOUDY    46  30  53 NE10      29.85S
$$

WIZ051-052-058>065-066-070>072-260300-
SOUTHEAST WISCONSIN

CITY           SKY/WX    TMP DP  RH WIND       PRES   REMARKS
MILWAUKEE      CLOUDY    41  26  55 N15G25    29.88R
WAUKESHA       CLOUDY    41  18  38 NE9       29.89R
MILWAUKEE/TIMM CLOUDY    43  16  33 N10       29.89R
RACINE         CLOUDY    40  29  64 N16G24    29.88S WCI  31
BURLINGTON     CLOUDY    41  17  38 NE12      29.87S
KENOSHA        CLOUDY    40  27  59 N10       29.87R WCI  33
FOND DU LAC    PTCLDY    44  19  36 NE10      29.91R
SHEBOYGAN      PTCLDY    41  21  44 N8        29.90R
WEST BEND      CLOUDY    41  14  33 N8        29.89R
JUNEAU         CLOUDY    43  19  38 N6        29.90R
$$

LSZ147-162-260300-
LAKE SUPERIOR

STATION/POSITION TIME  TEMP    WIND        PRES    WAVE
                       AIR SEA DIR/SP/G            HT/PER
                 (UTC) (F)     (DEG/KT/KT) (MB)    (FT/S)
W MID LAKE BUOY  0150   35 34   20/  8/  8 1018.7R   2/ 4
DEVILS ISLAND    0200   36      20/  9/ 10 1018.2R
PORT WING        0140   37      40/ 14/ 15 1017.3R
SAXON HARBOR     0140   38      50/  7/ 11 1016.3R
$$

LMZ867-665-643>646-260300-
LAKE MICHIGAN

STATION/POSITION TIME  TEMP    WIND        PRES    WAVE
                       AIR SEA DIR/SP/G            HT/PER
                 (UTC) (F)     (DEG/KT/KT) (MB)    (FT/S)
CHAMBERS ISLAND  0100   40      20/  9/ 10 1013.5F
NORTHPORT PIER   0100   44      10/  8/ 10 1013.5R
SISTER BAY       0032   46      40/  4/  9   N/A
KEWAUNEE LAKESHO 0100   42      30/ 13/ 18 1011.9R
SHEBOYGAN LAKESH 0200   42      10/ 17/ 20 1013.2R
PORT WASHINGTON  0100   43      20/  7/ 13 1012.5
MILWAUKEE LAKESH 0200   42     350/ 17/ 23   N/A
KENOSHA   LAKESH 0200   42      10/ 21/ 25 1011.2R
$$

TC  - TEMPERATURE IN CELSIUS
VSB - VISIBILITY IN STATUTE MILES
WCI - WIND CHILL INDEX
HX  - HEAT INDEX




USA.gov is the U.S. government's official web portal to all federal, state and local government web resources and services.